www.pogodaiklimat.ru

Погода и климат >> Архив погоды >> Россия >> Якутия >> Вилюйск


АРХИВ ПОГОДЫ в Вилюйске

Время (UTC), дата Ветер
(напр.,м/с)
 
Видим.   Явления Облачность Т
(С)
Тd
(С)
f
(%)
Тe
(С)
Тes
(С)
Комфортность P
(гПа)
Po
(гПа)
Тmin
(С)
Tmax
(С)
R
(мм)
R24
(мм)
S
(см)
21 16.08 СВ 2 50 км {дождь} 10/8 600 м
[Sc Ac As]
+13.8 +13.1 96 +13 +13 1014.9 1001.6
00 17.08 СВ 2 50 км в посл. час ливневой дождь 10/6 600 м
[Cb calv As op]
+14.6 +12.6 88 +14 +14 1014.7 1001.5 +13.7 0.7
03 17.08 СВ 2 50 км 10/8 600 м
[Sc As op]
+16.6 +13.0 79 +17 +17 1014.8 1001.7
06 17.08 В 3 50 км 9/9 600 м
[Sc]
+20.0 +13.8 67 +22 +23 комфорт 1014.1 1001.1
09 17.08 СВ 1 50 км 10/4 600 м
[Sc Ac trans Ci fib]
+21.0 +14.5 66 +25 +26 комфорт 1013.5 1000.6
12 17.08 СВ 2 50 км 10/4 600 м
[Sc Ac trans Ci fib]
+19.2 +14.0 72 +21 +21 комфорт 1013.9 1000.9 +22.5
15 17.08 СВ 3 20 км слаб. ливневой дождь 10/10 300 м
[Cb calv]
+15.9 +14.0 88 +15 +15 1013.8 1000.6
18 17.08 В 2 50 км {ливн. осадки} 10/10 600 м
[Cb calv]
+14.6 +12.2 86 +14 +14 1013.8 1000.6
21 17.08 В 2 50 км 10/3 600 м
[Sc Ac trans Ci fib]
+13.8 +11.6 87 +13 +13 1014.7 1001.4
00 18.08 В 3 50 км 10/3 600 м
[Sc Ac trans Cs]
+15.9 +10.2 69 +15 +17 1015.0 1001.8 +13.8 2
03 18.08 ЮВ 5
{13}
50 км 10/1 600 м
[Cu hum As trans]
+17.2 +8.2 55 +17 +18 1015.3 1002.2
06 18.08 СВ 3 50 км 10/0
[Ac As]
+18.0 +9.2 56 +18 +20 1014.3 1001.2
09 18.08 СВ 3 50 км 10/0
[Ac As]
+19.0 +9.1 53 +20 +20 1012.2 999.2
12 18.08 ЮВ 2
{10}
50 км {ливн. осадки} 10/6 600 м
[Cb calv Ac As]
+12.9 +11.6 92 +12 +12 1011.8 998.5 +19.3 6
15 18.08 СВ 2
{10}
20 км слаб. ливневой дождь 10/10 600 м
[Cb calv]
+12.1 +11.3 95 +11 +11 1011.9 998.5
18 18.08 В 3 50 км в посл. час ливневой дождь 9/9 600 м
[Cb calv]
+11.4 +10.2 92 +9 +9 1011.5 998.1
21 18.08 В 2 20 км слаб. ливневой дождь 10/10 300 м
[Cb cap]
+11.5 +10.3 92 +10 +10 1011.4 998.0
00 19.08 В 2 20 км слаб. ливневой дождь 10/10 300 м
[Cb cap]
+11.8 +11.2 96 +11 +11 1011.6 998.2 +11.4 5
03 19.08 В 3 20 км слаб. ливневой дождь 9/9 600 м
[Cb calv]
+12.6 +11.1 91 +11 +12 1011.6 998.3
06 19.08 ЮВ 3 50 км {ливн. осадки} 9/8 600 м
[Cb calv Ac trans]
+14.8 +11.3 80 +14 +15 1011.9 998.7
09 19.08 В 4 50 км в посл. час ливневой дождь 8/6 600 м
[Cb calv As op]
+15.5 +11.0 75 +15 +15 1012.6 999.4
12 19.08 В 2 50 км {ливн. осадки} 9/5 600 м
[Sc Ac As]
+14.4 +10.4 77 +14 +14 1013.7 1000.4 +16.1 1
15 19.08 В 2 50 км 5/0
[Ac trans]
+12.1 +10.0 87 +11 +11 1014.3 1000.9
18 19.08 В 2 50 км 10/8 600 м
[Sc Ac trans]
+11.7 +10.7 94 +10 +10 1014.8 1001.4
21 19.08 В 2 50 км 10/6 600 м
[Sc Ac trans]
+11.3 +10.5 95 +10 +10 1015.0 1001.6
00 20.08 В 2 50 км 10/6 600 м
[Cb calv Ac trans Ci fib]
+13.2 +10.9 86 +12 +13 1015.0 1001.7 +11.2
03 20.08 ЮВ 2 50 км 10/8 600 м
[Sc Ac trans]
+15.2 +11.1 77 +15 +16 1015.4 1002.2
06 20.08 В 2 50 км 10/8 600 м
[Sc Ac trans]
+15.8 +11.2 74 +16 +16 1016.0 1002.8
09 20.08 СВ 2 50 км 10/8 600 м
[Sc Ac trans Ci fib]
+16.8 +11.7 72 +17 +17 1016.0 1002.9
12 20.08 В 2 50 км 10/3 600 м
[Sc Ac trans Ci fib]
+15.6 +10.9 74 +16 +16 1016.6 1003.4 +17.2
15 20.08 В 2 50 км 9/3 600 м
[Sc Ac trans Ci fib]
+13.6 +10.5 82 +13 +13 1017.1 1003.8
18 20.08 В 1 50 км 5/0
[Ac trans Ci fib]
+12.2 +9.9 86 +12 +12 1018.3 1004.9
21 20.08 В 1 4000 м туман поземный 10/0
[Cs]
+11.2 +9.4 89 +11 +11 1018.6 1005.2
00 21.08 СВ 2 4000 м слаб. морось 10/10 300 м
[St]
+11.8 +10.4 91 +11 +11 1019.4 1006.0 +11.2 0.0
03 21.08 В 1 50 км {морось} 10/10 300 м
[Cb calv]
+14.0 +11.0 82 +14 +14 1020.2 1006.9
06 21.08 В 2 50 км {морось} 8/8 600 м
[Sc]
+17.2 +10.7 66 +18 +19 1019.4 1006.3
09 21.08 В 1 50 км 10/4 600 м
[Sc Ci fib]
+17.8 +10.3 61 +19 +20 1019.1 1006.0
12 21.08 В 1 50 км 10/0
[Ac trans Ci fib]
+15.1 +10.4 73 +16 +16 1019.4 1006.2 +18.8
15 21.08 В 1 50 км 10/0
[Ac trans Ci fib]
+12.6 +10.3 86 +13 +13 1019.3 1006.0
18 21.08 С 1 50 км 10/0
[Ci fib]
+9.9 +8.0 88 +9 +9 1019.3 1005.8
21 21.08 штиль 0 4000 м туман поземный 10/0
[As trans]
+10.0 +8.8 92 +9 +9 1019.1 1005.6
00 22.08 СВ 1 50 км 10/6 600 м
[Cb calv Ac As]
+12.3 +11.0 92 +12 +13 1018.3 1004.9 +9.9
03 22.08 В 1 50 км 10/6 600 м
[Cb calv Ci fib]
+17.1 +12.2 73 +18 +21 1017.2 1004.1
06 22.08 В 2 50 км 10/10 600 м
[Cb calv]
+18.3 +12.4 68 +19 +19 1015.6 1002.5
09 22.08 Ю 1 50 км 10/8 600 м
[Cb calv Ac trans]
+16.6 +12.6 77 +17 +18 1015.0 1001.9
12 22.08 В 1 50 км 9/4 600 м
[Sc Ac trans]
+15.7 +11.8 78 +16 +16 1014.5 1001.3 +18.9
15 22.08 В 2 50 км 10/3 600 м
[Sc Ac trans Ci fib]
+14.1 +11.9 87 +14 +14 1014.2 1000.9
18 22.08 В 1 50 км 10/3 600 м
[Sc Ac trans Ci fib]
+13.1 +11.4 89 +13 +13 1013.5 1000.2
21 22.08 В 1 50 км в посл. час ливневой дождь 9/4 600 м
[Cb calv Ac trans]
+12.3 +10.8 91 +12 +12 1013.0 999.6
00 23.08 Ю 1 50 км {ливн. осадки} 6/3 600 м
[Cu hum Ac trans Ci fib]
+15.8 +12.7 82 +16 +19 1012.7 999.5 +1.2 0.0
03 23.08 ЮЗ 2 50 км гроза, ливневой дождь 9/6 600 м
[Cb calv Ci fib]
+18.8 +12.8 68 +20 +23 1011.5 998.5
06 23.08 СЗ 4
{12}
20 км гроза, ливневой дождь 9/9 600 м
[Cb calv]
+14.2 +12.2 88 +13 +13 1011.6 998.3
09 23.08 З 1 50 км {гроза, ливн. осадки} 6/3 600 м
[Cb calv Ac trans]
+19.0 +12.2 65 +21 +22 комфорт 1010.6 997.6
12 23.08 З 1 50 км {гроза, ливн. осадки} 6/3 600 м
[Cb calv Ac trans Ci fib]
+15.8 +12.7 82 +16 +16 1010.9 997.7 +20.5 2
15 23.08 ЮЗ 1 50 км 6/0
[Ac trans Ci fib]
+12.5 +10.4 87 +12 +12 1011.7 998.3

 

Местоположение метеостанции Вилюйск (Якутия, Россия): широта 63.77 долгота 121.60 высота над уровнем моря 123 м.

В архиве по умолчанию представлена погода в Вилюйске за последнюю неделю. Архивные данные за месяц целиком и за предыдущие месяцы, начиная с января 2011 года, Вы можете получить, выбрав интересующий диапазон дат из раскрывающегося списка и нажав кнопку "Ввод!".


*Определитесь, кто Вы:
робот инопланетянин человек

Внимание! Время в таблицах - всемирное. Для получения местного времени необходимо прибавить поправку, которая равна 9 ч.

Смотрите также архив погоды в соседних городах и на ближайших метеорологических станциях:

Погода в Верхневилюйске (Якутия, Россия) (78 км)
Погода в Хатырык-Хомо (Якутия, Россия) (158 км)
Погода в Нюрбе (Якутия, Россия) (172 км)
Погода в Бестяхской Звероферме (Якутия, Россия) (208 км)
Погода в Чумпуруке (Якутия, Россия) (235 км)
Погода в Сого-Хае (Якутия, Россия) (241 км)
Погода в Тонгулахе (Якутия, Россия) (253 км)
Погода в Сунтаре (Якутия, Россия) (269 км)
Погода в Сангаре (Якутия, Россия) (285 км)
Погода в Бердигестяхе (Якутия, Россия) (319 км)

Пояснения к столбцам:

Ветер - указаны скорость ветра в м/с - средняя за 10 мин, порывы в срок и между сроками (в фигурных скобках) и направление, откуда дует ветер: С - северный, СВ - северо-восточный, В - восточный, ЮВ - юго-восточный, Ю - южный, ЮЗ - юго-западный, З - западный, СЗ - северо-западный.
Видимость - горизонтальная дальность видимости в метрах или километрах. При видимости от 1 до 10 км при отсутствии осадков обычно наблюдается дымка, при ухудшении видимости до 1 км и менее - туман. В сухую погоду видимость может ухудшаться дымом, пылью или мглою.
Явления - указаны атмосферные явления, наблюдавшиеся в срок или в последний час перед сроком; фигурными скобками обозначены явления, наблюдавшиеся между сроками (за 1-3 часа до срока); квадратными скобками обозначены град или гололедные отложения с указанием их диаметра в мм.
Облачность - указаны через наклонную черту общая и нижняя облачность в баллах и высота нижней границы облаков в метрах; квадратными скобками обозначены формы облаков: Ci - перистые, Cs - перисто-слоистые, Cc - перисто-кучевые, Ac - высококучевые, As - высокослоистые, Sc - слоисто-кучевые, Ns - слоисто-дождевые, Cu - кучевые, Cb - кучево-дождевые. Подробнее классификацию облаков см. в Атласе облаков (PDF).
T - Температура воздуха - температура, измеренная на высоте 2 м над землей.
Td - Температура точки росы - температура, при понижении до которой содержащийся в воздухе водяной пар достигнет насыщения.
f - Относительная влажность воздуха - влажноcть воздуха, измеренная на высоте 2 м над землей.
Te - Эффективная температура - температура, которую ощущает одетый по сезону человек в тени. Характеристика душности погоды. При расчете учитывается влияние влажности воздуха и скорости ветра на теплоощущения человека.
Tes - Эффективная температура на солнце - температура, которую ощущает человек, с поправкой на солнечный нагрев. Характеристика знойности погоды. Зависит от высоты солнца над горизонтом, облачности и скорости ветра. Ночью, в пасмурную погоду, а также при ветре 12 м/с и более поправка равна нулю.
P - Атмосферное давление - приведенное к уровню моря атмосферное давление.
Po - Атмосферное давление - измеренное на уровне метеостанции атмосферное давление.
Tmin - Минимальная температура - минимум температуры воздуха на высоте 2 м над землей.
Tmax - Максимальная температура - максимум температуры воздуха на высоте 2 м над землей.
R - Количество осадков - Количество выпавших осадков за период времени, мм. При наведении курсора мыши на число - период времени, за который выпало указанное количество осадков.
R24 - Количество осадков - Количество выпавших осадков за 24 часа, мм.
S - Снежный покров - Высота снежного покрова, см. При наведении курсора мыши на число - состояние снежного покрова и степень покрытия местности в баллах.